Location: ?
(35.4064°N, 139.3593°E)
Time: 14:55:01
(UTC+00:00)

ACS3 Solar Sail - Pass Details

Date: 20 June 2024
Orbit: 993 x 1023 km, 97.4° (Epoch: 19 July)

Event Time Altitude Azimuth Distance (km) Brightness Sun altitude
Exits shadow 13:04:40 31° 224° (SW) 1,667 5.8 -26.6°
Maximum altitude 13:06:43 40° 264° (W) 1,438 5.7 -26.8°
Drops below altitude 10° 13:12:31 10° 332° (NNW) 2,767 8.2 -27.3°
Sets 13:15:11 0° 340° (NNW) 3,717 9.1 -27.5°
